JST535 YMAV-YMML

Flight info

Callsign JST535
Flight time N/A
Altitude 9000
Route AV W190 ML
Aircraft A320/M-SDE3FGHIRWY/LB1

Departure

Time 2026-04-15 08:16
Airport Melbourne Avalon International Airport (YMAV)

Arrival

Time N/A
Airport Melbourne Airport (YMML)
Time Latitude Longitude Altitude Speed Heading
2026-04-15 08:14 -38.02804 144.47398 36 ft 0 kts 276°
2026-04-15 08:14 -38.02802 144.47384 36 ft 6 kts 276°
2026-04-15 08:14 -38.02790 144.47254 36 ft 22 kts 277°
2026-04-15 08:15 -38.02740 144.47063 35 ft 25 kts 281°
2026-04-15 08:15 -38.02779 144.46930 32 ft 14 kts 188°
2026-04-15 08:15 -38.02892 144.46911 34 ft 19 kts 188°
2026-04-15 08:15 -38.03144 144.46870 37 ft 74 kts 187°
2026-04-15 08:16 -38.03918 144.46743 38 ft 146 kts 187°
2026-04-15 08:16 -38.04995 144.46564 680 ft 157 kts 188°
2026-04-15 08:16 -38.06080 144.46593 1613 ft 161 kts 163°
2026-04-15 08:16 -38.06995 144.47560 2212 ft 189 kts 121°
2026-04-15 08:17 -38.07290 144.49271 2699 ft 215 kts 83°
2026-04-15 08:17 -38.06992 144.51226 3312 ft 238 kts 73°
2026-04-15 08:17 -38.06534 144.53365 4044 ft 263 kts 72°
2026-04-15 08:17 -38.06012 144.55693 4783 ft 281 kts 72°
2026-04-15 08:18 -38.05462 144.58117 5604 ft 291 kts 72°
2026-04-15 08:18 -38.04896 144.60584 5911 ft 291 kts 72°
2026-04-15 08:18 -38.04331 144.63048 5992 ft 290 kts 72°
2026-04-15 08:18 -38.03765 144.65499 6007 ft 289 kts 72°
2026-04-15 08:19 -38.03200 144.67942 6008 ft 288 kts 72°
2026-04-15 08:19 -38.02634 144.70385 6005 ft 288 kts 72°
2026-04-15 08:19 -38.02070 144.72825 6006 ft 288 kts 72°
2026-04-15 08:19 -38.01399 144.75210 6011 ft 286 kts 59°
2026-04-15 08:20 -38.00322 144.77327 6006 ft 285 kts 52°
2026-04-15 08:20 -37.99182 144.79393 6008 ft 285 kts 52°
2026-04-15 08:20 -37.98038 144.81450 6003 ft 286 kts 52°
2026-04-15 08:20 -37.96888 144.83512 6008 ft 286 kts 52°
2026-04-15 08:21 -37.95741 144.85567 6012 ft 286 kts 52°
2026-04-15 08:21 -37.94592 144.87628 6015 ft 286 kts 52°
2026-04-15 08:21 -37.93442 144.89685 6007 ft 286 kts 52°
2026-04-15 08:21 -37.92290 144.91733 6009 ft 286 kts 52°
2026-04-15 08:22 -37.91138 144.93780 6008 ft 285 kts 52°
2026-04-15 08:22 -37.89989 144.95826 6008 ft 285 kts 52°
2026-04-15 08:22 -37.88840 144.97872 6008 ft 285 kts 52°